Kezdőlap
METAR-TAF:

METAR-TAF

Repülőterek :

Logan County Airport

Lincoln, Illinois, Amerikai Egyesült Államok

földrajzi szélesség: 40-09-31N, földrajzi hosszúság: 089-20-06W, magasság: 182 m

Jelenlegi meteorológiai megfigyelések

A jelentés 26 perccel ezelõtt készült, 09:55 UTC
Szélcsend
Hőmérséklet 6°C
Páratartalom 100%
Légköri nyomás 1017 hPa
Látótávolság: 16.1 km
Szórványos felhőzet 7500 lábon
Borult 10000 lábon

METAR: KAAA 230955Z AUTO 00000KT 10SM SCT075 OVC100 06/06 A3003 RMK AO2 T00610061

Idő: 05:21 (10:21 UTC)


TAF: hiányzik

Meteorológiai megfigyelések és előrejelzések több, mint 4000 repülőtéren (METAR és TAF jelentéseket).

A térképen piros és sárga pontok jelzik az elérhető meteorológiai állomásokat.

Mozgassa az egeret a pont fölött, hogy megjelenjen az állomás neve.

Azután kattintson az időjárási megfigyelések és előrejelzések megtekintéséhez.

A térkép megváltoztatása: kattintson a fekete keresztel jelölt zöld gombra ráközelítéshez, a vonallal jelölt zöld gombra távolításhoz, vagy a zöld nyilakra a szomszédos térképek eléréséhez.


METAR-TAF: